Location: Camps Bay
(33.9517°S, 18.3844°E)
Time: 04:16:34
(UTC+00:00)

SL-16 R/B - Pass Details

Date: 18 January 2020
Orbit: 986 x 1006 km, 99.5° (Epoch: 23 February)

Event Time Altitude Azimuth Distance (km) Brightness Sun altitude
Rises 01:32:22 0° 169° (SSE) 3,742 6.5 -24.0°
Reaches altitude 10° 01:34:52 10° 170° (S) 2,784 5.7 -23.6°
Maximum altitude 01:41:06 76° 254° (WSW) 1,028 2.5 -22.8°
Enters shadow 01:43:15 43° 329° (NNW) 1,355 2.8 -22.5°
